Time,TemperatureF,DewpointF,PressureIn,WindDirection,WindDirectionDegrees,WindSpeedMPH,WindSpeedGustMPH,Humidity,HourlyPrecipIn,Conditions,Clouds,dailyrainin,SoftwareType,DateUTC
2013-03-15 00:03:00,38.0,20.0,-100.00,WNW,295,9.0,20.0,48,0.00,,,-99.99,,2013-03-15 04:03:00,
2013-03-15 00:12:00,38.0,20.0,-100.00,NW,310,9.0,21.0,49,0.00,,,-99.99,,2013-03-15 04:12:00,
2013-03-15 00:23:00,38.0,20.0,-100.00,NW,310,9.0,21.0,49,0.00,,,-99.99,,2013-03-15 04:23:00,
2013-03-15 00:33:00,37.0,20.0,-100.00,NW,310,6.0,17.0,49,0.00,,,-99.99,,2013-03-15 04:33:00,
2013-03-15 00:43:00,37.0,20.0,-100.00,WNW,295,4.0,12.0,50,0.00,,,-99.99,,2013-03-15 04:43:00,
2013-03-15 00:52:00,37.0,20.0,-100.00,WNW,295,4.0,12.0,50,0.00,,,-99.99,,2013-03-15 04:52:00,
2013-03-15 01:02:00,37.0,20.0,-100.00,WNW,290,8.0,16.0,50,0.00,,,-99.99,,2013-03-15 05:02:00,
2013-03-15 01:12:00,37.0,20.0,-100.00,NW,305,8.0,15.0,50,0.00,,,-99.99,,2013-03-15 05:12:00,
2013-03-15 01:22:00,37.0,20.0,-100.00,WNW,285,9.0,21.0,50,0.00,,,-99.99,,2013-03-15 05:22:00,
2013-03-15 01:32:00,37.0,20.0,-100.00,WNW,285,9.0,21.0,50,0.00,,,-99.99,,2013-03-15 05:32:00,
2013-03-15 01:42:00,37.0,20.0,-100.00,WNW,285,6.0,17.0,51,0.00,,,-99.99,,2013-03-15 05:42:00,
2013-03-15 01:52:00,36.0,20.0,-100.00,WNW,290,6.0,15.0,52,0.00,,,-99.99,,2013-03-15 05:52:00,
2013-03-15 02:02:00,36.0,20.0,-100.00,WNW,290,6.0,15.0,52,0.00,,,-99.99,,2013-03-15 06:02:00,
2013-03-15 02:13:00,36.0,21.0,-100.00,West,265,2.0,17.0,54,0.00,,,-99.99,,2013-03-15 06:13:00,
2013-03-15 02:22:00,36.0,21.0,-100.00,West,265,2.0,17.0,54,0.00,,,-99.99,,2013-03-15 06:22:00,
2013-03-15 02:32:00,36.0,21.0,-100.00,WNW,290,6.0,13.0,54,0.00,,,-99.99,,2013-03-15 06:32:00,
2013-03-15 02:42:00,35.0,21.0,-100.00,West,280,4.0,7.0,55,0.00,,,-99.99,,2013-03-15 06:42:00,
2013-03-15 02:53:00,35.0,21.0,-100.00,WNW,290,4.0,7.0,56,0.00,,,-99.99,,2013-03-15 06:53:00,
2013-03-15 03:02:00,35.0,21.0,-100.00,WNW,290,4.0,7.0,56,0.00,,,-99.99,,2013-03-15 07:02:00,
2013-03-15 03:13:00,35.0,21.0,-100.00,WSW,255,2.0,7.0,57,0.00,,,-99.99,,2013-03-15 07:13:00,
2013-03-15 03:22:00,35.0,21.0,-100.00,WSW,255,2.0,7.0,57,0.00,,,-99.99,,2013-03-15 07:22:00,
2013-03-15 03:32:00,36.0,22.0,-100.00,WSW,250,6.0,13.0,57,0.00,,,-99.99,,2013-03-15 07:32:00,
2013-03-15 03:42:00,35.0,22.0,-100.00,WNW,285,1.0,10.0,58,0.00,,,-99.99,,2013-03-15 07:42:00,
2013-03-15 03:52:00,35.0,22.0,-100.00,WNW,285,1.0,10.0,58,0.00,,,-99.99,,2013-03-15 07:52:00,
2013-03-15 04:02:00,34.0,21.0,-100.00,WSW,255,0.0,2.0,59,0.00,,,-99.99,,2013-03-15 08:02:00,
2013-03-15 04:12:00,34.0,22.0,-100.00,West,270,1.0,6.0,60,0.00,,,-99.99,,2013-03-15 08:12:00,
2013-03-15 04:23:00,34.0,22.0,-100.00,West,270,2.0,6.0,62,0.00,,,-99.99,,2013-03-15 08:23:00,
2013-03-15 04:33:00,34.0,22.0,-100.00,West,270,2.0,6.0,62,0.00,,,-99.99,,2013-03-15 08:33:00,
2013-03-15 04:42:00,33.0,22.0,-100.00,NW,325,1.0,5.0,63,0.00,,,-99.99,,2013-03-15 08:42:00,
2013-03-15 04:52:00,32.0,22.0,-100.00,West,265,2.0,7.0,66,0.00,,,-99.99,,2013-03-15 08:52:00,
2013-03-15 05:02:00,32.0,22.0,-100.00,West,265,2.0,7.0,66,0.00,,,-99.99,,2013-03-15 09:02:00,
2013-03-15 05:12:00,32.0,22.0,-100.00,SSE,165,0.0,6.0,66,0.00,,,-99.99,,2013-03-15 09:12:00,
2013-03-15 05:22:00,32.0,22.0,-100.00,SSE,165,0.0,6.0,66,0.00,,,-99.99,,2013-03-15 09:22:00,
2013-03-15 05:33:00,33.0,24.0,-100.00,WNW,300,3.0,9.0,67,0.00,,,-99.99,,2013-03-15 09:33:00,
2013-03-15 05:43:00,33.0,23.0,-100.00,West,270,3.0,7.0,67,0.00,,,-99.99,,2013-03-15 09:43:00,
2013-03-15 05:53:00,33.0,24.0,-100.00,West,275,3.0,7.0,68,0.00,,,-99.99,,2013-03-15 09:53:00,
2013-03-15 06:03:00,33.0,24.0,-100.00,West,275,3.0,7.0,68,0.00,,,-99.99,,2013-03-15 10:03:00,
2013-03-15 06:12:00,33.0,23.0,-100.00,West,275,1.0,7.0,68,0.00,,,-99.99,,2013-03-15 10:12:00,
2013-03-15 06:23:00,33.0,23.0,-100.00,West,275,1.0,7.0,68,0.00,,,-99.99,,2013-03-15 10:23:00,
2013-03-15 06:33:00,32.0,24.0,-100.00,WSW,250,1.0,6.0,72,0.00,,,-99.99,,2013-03-15 10:33:00,
2013-03-15 06:42:00,31.0,24.0,-100.00,SW,235,1.0,9.0,73,0.00,,,-99.99,,2013-03-15 10:42:00,
2013-03-15 06:52:00,30.0,23.0,-100.00,South,190,1.0,4.0,75,0.00,,,-99.99,,2013-03-15 10:52:00,
2013-03-15 07:03:00,30.0,23.0,-100.00,South,190,1.0,4.0,75,0.00,,,-99.99,,2013-03-15 11:03:00,
2013-03-15 07:12:00,30.0,24.0,-100.00,West,265,2.0,6.0,77,0.00,,,-99.99,,2013-03-15 11:12:00,
2013-03-15 07:23:00,30.0,24.0,-100.00,NNW,330,1.0,5.0,79,0.00,,,-99.99,,2013-03-15 11:23:00,
2013-03-15 07:32:00,30.0,24.0,-100.00,NNW,330,1.0,5.0,79,0.00,,,-99.99,,2013-03-15 11:32:00,
2013-03-15 07:42:00,29.0,26.0,-100.00,West,280,2.0,7.0,85,0.00,,,-99.99,,2013-03-15 11:42:00,
2013-03-15 07:52:00,29.0,26.0,-100.00,WNW,290,0.0,6.0,87,0.00,,,-99.99,,2013-03-15 11:52:00,
2013-03-15 08:02:00,29.0,26.0,-100.00,WNW,290,0.0,6.0,87,0.00,,,-99.99,,2013-03-15 12:02:00,
2013-03-15 08:12:00,30.0,26.0,-100.00,SSW,210,0.0,6.0,88,0.00,,,-99.99,,2013-03-15 12:12:00,
2013-03-15 08:23:00,30.0,27.0,-100.00,NW,310,0.0,6.0,90,0.00,,,-99.99,,2013-03-15 12:23:00,
2013-03-15 08:32:00,30.0,27.0,-100.00,NW,310,0.0,6.0,90,0.00,,,-99.99,,2013-03-15 12:32:00,
2013-03-15 08:42:00,31.0,28.0,-100.00,SW,220,0.0,7.0,90,0.00,,,-99.99,,2013-03-15 12:42:00,
2013-03-15 08:52:00,31.0,28.0,-100.00,SW,220,0.0,7.0,90,0.00,,,-99.99,,2013-03-15 12:52:00,
2013-03-15 09:02:00,31.0,29.0,-100.00,West,270,1.0,4.0,90,0.00,,,-99.99,,2013-03-15 13:02:00,
2013-03-15 09:12:00,34.0,29.0,-100.00,West,260,1.0,4.0,82,0.00,,,-99.99,,2013-03-15 13:12:00,
2013-03-15 09:22:00,34.0,29.0,-100.00,West,260,1.0,4.0,82,0.00,,,-99.99,,2013-03-15 13:22:00,
2013-03-15 09:32:00,36.0,31.0,-100.00,SSW,200,1.0,4.0,81,0.00,,,-99.99,,2013-03-15 13:32:00,
2013-03-15 09:42:00,36.0,30.0,-100.00,SW,225,2.0,6.0,77,0.00,,,-99.99,,2013-03-15 13:42:00,
2013-03-15 09:52:00,36.0,30.0,-100.00,SW,225,2.0,6.0,77,0.00,,,-99.99,,2013-03-15 13:52:00,
2013-03-15 10:02:00,41.0,29.0,-100.00,SW,220,3.0,6.0,62,0.00,,,-99.99,,2013-03-15 14:02:00,
2013-03-15 10:12:00,43.0,27.0,-100.00,SW,225,4.0,8.0,54,0.00,,,-99.99,,2013-03-15 14:12:00,
2013-03-15 10:22:00,43.0,27.0,-100.00,SW,225,4.0,8.0,54,0.00,,,-99.99,,2013-03-15 14:22:00,
2013-03-15 10:33:00,42.0,26.0,-100.00,SSW,205,3.0,8.0,52,0.00,,,-99.99,,2013-03-15 14:33:00,
2013-03-15 10:42:00,41.0,25.0,-100.00,SW,230,4.0,12.0,52,0.00,,,-99.99,,2013-03-15 14:42:00,
2013-03-15 10:52:00,41.0,25.0,-100.00,SW,230,4.0,12.0,52,0.00,,,-99.99,,2013-03-15 14:52:00,
2013-03-15 11:02:00,42.0,25.0,-100.00,WNW,295,4.0,7.0,52,0.00,,,-99.99,,2013-03-15 15:02:00,
2013-03-15 11:13:00,43.0,25.0,-100.00,SSW,210,2.0,8.0,50,0.00,,,-99.99,,2013-03-15 15:13:00,
2013-03-15 11:23:00,43.0,25.0,-100.00,SSW,210,2.0,8.0,50,0.00,,,-99.99,,2013-03-15 15:23:00,
2013-03-15 11:33:00,43.0,25.0,-100.00,SW,235,3.0,9.0,48,0.00,,,-99.99,,2013-03-15 15:33:00,
2013-03-15 11:43:00,44.0,25.0,-100.00,WSW,240,2.0,6.0,47,0.00,,,-99.99,,2013-03-15 15:43:00,
2013-03-15 11:52:00,44.0,25.0,-100.00,SW,230,4.0,10.0,46,0.00,,,-99.99,,2013-03-15 15:52:00,
2013-03-15 12:03:00,44.0,25.0,-100.00,SW,230,4.0,10.0,46,0.00,,,-99.99,,2013-03-15 16:03:00,
2013-03-15 12:13:00,46.0,26.0,-100.00,SW,215,3.0,7.0,45,0.00,,,-99.99,,2013-03-15 16:13:00,
2013-03-15 12:23:00,50.0,28.0,-100.00,East,85,1.0,7.0,43,0.00,,,-99.99,,2013-03-15 16:23:00,
2013-03-15 12:32:00,50.0,28.0,-100.00,East,85,1.0,7.0,43,0.00,,,-99.99,,2013-03-15 16:32:00,
2013-03-15 12:42:00,51.0,28.0,-100.00,SW,215,3.0,9.0,40,0.00,,,-99.99,,2013-03-15 16:42:00,
2013-03-15 12:52:00,51.0,28.0,-100.00,SW,215,3.0,9.0,40,0.00,,,-99.99,,2013-03-15 16:52:00,
2013-03-15 13:02:00,52.0,27.0,-100.00,South,170,3.0,8.0,38,0.00,,,-99.99,,2013-03-15 17:02:00,
2013-03-15 13:12:00,53.0,27.0,-100.00,SW,225,5.0,8.0,37,0.00,,,-99.99,,2013-03-15 17:12:00,
2013-03-15 13:22:00,53.0,27.0,-100.00,SW,225,5.0,8.0,37,0.00,,,-99.99,,2013-03-15 17:22:00,
2013-03-15 13:32:00,54.0,27.0,-100.00,SSW,210,4.0,10.0,36,0.00,,,-99.99,,2013-03-15 17:32:00,
2013-03-15 13:42:00,53.0,27.0,-100.00,WSW,255,4.0,15.0,36,0.00,,,-99.99,,2013-03-15 17:42:00,
2013-03-15 13:52:00,53.0,27.0,-100.00,WSW,255,4.0,15.0,36,0.00,,,-99.99,,2013-03-15 17:52:00,
2013-03-15 14:03:00,53.0,27.0,-100.00,SSE,150,2.0,15.0,37,0.00,,,-99.99,,2013-03-15 18:03:00,
2013-03-15 14:12:00,54.0,28.0,-100.00,WSW,245,4.0,11.0,37,0.00,,,-99.99,,2013-03-15 18:12:00,
2013-03-15 14:22:00,54.0,28.0,-100.00,WSW,245,4.0,11.0,37,0.00,,,-99.99,,2013-03-15 18:22:00,
2013-03-15 14:32:00,54.0,28.0,-100.00,SW,230,3.0,7.0,36,0.00,,,-99.99,,2013-03-15 18:32:00,
2013-03-15 14:42:00,55.0,29.0,-100.00,SW,225,4.0,7.0,37,0.00,,,-99.99,,2013-03-15 18:42:00,
2013-03-15 14:52:00,55.0,29.0,-100.00,SW,225,4.0,7.0,37,0.00,,,-99.99,,2013-03-15 18:52:00,
2013-03-15 15:02:00,55.0,29.0,-100.00,SW,235,2.0,9.0,37,0.00,,,-99.99,,2013-03-15 19:02:00,
2013-03-15 15:12:00,54.0,29.0,-100.00,SW,215,3.0,8.0,38,0.00,,,-99.99,,2013-03-15 19:12:00,
2013-03-15 15:23:00,54.0,29.0,-100.00,SW,215,3.0,8.0,38,0.00,,,-99.99,,2013-03-15 19:23:00,
2013-03-15 15:32:00,54.0,29.0,-100.00,SSW,195,2.0,9.0,38,0.00,,,-99.99,,2013-03-15 19:32:00,
2013-03-15 15:42:00,56.0,31.0,-100.00,SW,220,2.0,9.0,39,0.00,,,-99.99,,2013-03-15 19:42:00,
2013-03-15 15:53:00,56.0,31.0,-100.00,SW,220,2.0,9.0,39,0.00,,,-99.99,,2013-03-15 19:53:00,
2013-03-15 16:02:00,56.0,31.0,-100.00,SW,230,2.0,6.0,38,0.00,,,-99.99,,2013-03-15 20:02:00,
2013-03-15 16:12:00,55.0,30.0,-100.00,SW,235,3.0,7.0,38,0.00,,,-99.99,,2013-03-15 20:12:00,
2013-03-15 16:22:00,55.0,31.0,-100.00,SW,230,4.0,8.0,40,0.00,,,-99.99,,2013-03-15 20:22:00,
2013-03-15 16:32:00,55.0,31.0,-100.00,SW,230,4.0,8.0,40,0.00,,,-99.99,,2013-03-15 20:32:00,
2013-03-15 16:42:00,56.0,32.0,-100.00,SSW,200,4.0,11.0,40,0.00,,,-99.99,,2013-03-15 20:42:00,
2013-03-15 16:52:00,56.0,32.0,-100.00,SSW,200,4.0,11.0,40,0.00,,,-99.99,,2013-03-15 20:52:00,
2013-03-15 17:02:00,56.0,32.0,-100.00,West,260,4.0,9.0,40,0.00,,,-99.99,,2013-03-15 21:02:00,
2013-03-15 17:12:00,56.0,32.0,-100.00,West,280,3.0,7.0,40,0.00,,,-99.99,,2013-03-15 21:12:00,
2013-03-15 17:22:00,56.0,32.0,-100.00,West,280,3.0,7.0,40,0.00,,,-99.99,,2013-03-15 21:22:00,
2013-03-15 17:33:00,56.0,32.0,-100.00,WSW,255,2.0,6.0,40,0.00,,,-99.99,,2013-03-15 21:33:00,
2013-03-15 17:43:00,56.0,33.0,-100.00,West,260,4.0,11.0,41,0.00,,,-99.99,,2013-03-15 21:43:00,
2013-03-15 17:53:00,56.0,33.0,-100.00,West,280,6.0,9.0,42,0.00,,,-99.99,,2013-03-15 21:53:00,
2013-03-15 18:04:00,56.0,33.0,-100.00,West,280,6.0,9.0,42,0.00,,,-99.99,,2013-03-15 22:04:00,
2013-03-15 18:13:00,56.0,34.0,-100.00,West,275,2.0,9.0,43,0.00,,,-99.99,,2013-03-15 22:13:00,
2013-03-15 18:22:00,56.0,34.0,-100.00,West,275,2.0,9.0,43,0.00,,,-99.99,,2013-03-15 22:22:00,
2013-03-15 18:32:00,56.0,34.0,-100.00,West,265,4.0,7.0,43,0.00,,,-99.99,,2013-03-15 22:32:00,
2013-03-15 18:42:00,57.0,35.0,-100.00,WSW,255,4.0,9.0,45,0.00,,,-99.99,,2013-03-15 22:42:00,
2013-03-15 18:52:00,57.0,35.0,-100.00,WSW,255,4.0,9.0,45,0.00,,,-99.99,,2013-03-15 22:52:00,
2013-03-15 19:03:00,56.0,36.0,-100.00,WNW,295,6.0,9.0,46,0.00,,,-99.99,,2013-03-15 23:03:00,
2013-03-15 19:12:00,56.0,35.0,-100.00,WNW,290,4.0,11.0,46,0.00,,,-99.99,,2013-03-15 23:12:00,
2013-03-15 19:22:00,56.0,35.0,-100.00,WNW,290,4.0,11.0,46,0.00,,,-99.99,,2013-03-15 23:22:00,
2013-03-15 19:32:00,56.0,36.0,-100.00,NW,320,4.0,9.0,47,0.00,,,-99.99,,2013-03-15 23:32:00,
2013-03-15 19:42:00,55.0,36.0,-100.00,NW,305,6.0,12.0,48,0.00,,,-99.99,,2013-03-15 23:42:00,
2013-03-15 19:52:00,55.0,36.0,-100.00,NW,305,6.0,12.0,48,0.00,,,-99.99,,2013-03-15 23:52:00,
2013-03-15 20:03:00,55.0,35.0,-100.00,WNW,285,7.0,10.0,48,0.00,,,-99.99,,2013-03-16 00:03:00,
2013-03-15 20:12:00,55.0,36.0,-100.00,WNW,285,4.0,7.0,49,0.00,,,-99.99,,2013-03-16 00:12:00,
2013-03-15 20:22:00,55.0,36.0,-100.00,West,275,6.0,9.0,49,0.00,,,-99.99,,2013-03-16 00:22:00,
2013-03-15 20:32:00,55.0,36.0,-100.00,West,275,6.0,9.0,49,0.00,,,-99.99,,2013-03-16 00:32:00,
2013-03-15 20:42:00,54.0,36.0,-100.00,WNW,285,5.0,7.0,49,0.00,,,-99.99,,2013-03-16 00:42:00,
2013-03-15 20:52:00,54.0,35.0,-100.00,WNW,285,4.0,9.0,49,0.00,,,-99.99,,2013-03-16 00:52:00,
2013-03-15 21:03:00,54.0,35.0,-100.00,WNW,285,4.0,9.0,49,0.00,,,-99.99,,2013-03-16 01:03:00,
2013-03-15 21:12:00,54.0,35.0,-100.00,WNW,285,6.0,10.0,49,0.00,,,-99.99,,2013-03-16 01:12:00,
2013-03-15 21:22:00,54.0,35.0,-100.00,WSW,250,4.0,11.0,50,0.00,,,-99.99,,2013-03-16 01:22:00,
2013-03-15 21:32:00,54.0,35.0,-100.00,WSW,250,4.0,11.0,50,0.00,,,-99.99,,2013-03-16 01:32:00,
2013-03-15 21:42:00,53.0,35.0,-100.00,WSW,250,2.0,8.0,51,0.00,,,-99.99,,2013-03-16 01:42:00,
2013-03-15 21:53:00,53.0,35.0,-100.00,West,275,4.0,9.0,51,0.00,,,-99.99,,2013-03-16 01:53:00,
2013-03-15 22:02:00,53.0,35.0,-100.00,West,275,4.0,9.0,51,0.00,,,-99.99,,2013-03-16 02:02:00,
2013-03-15 22:12:00,53.0,35.0,-100.00,WNW,285,6.0,12.0,51,0.00,,,-99.99,,2013-03-16 02:12:00,
2013-03-15 22:23:00,53.0,35.0,-100.00,WNW,285,6.0,12.0,51,0.00,,,-99.99,,2013-03-16 02:23:00,
2013-03-15 22:33:00,53.0,35.0,-100.00,West,275,4.0,9.0,51,0.00,,,-99.99,,2013-03-16 02:33:00,
2013-03-15 22:43:00,52.0,35.0,-100.00,West,280,3.0,8.0,52,0.00,,,-99.99,,2013-03-16 02:43:00,
2013-03-15 22:52:00,51.0,35.0,-100.00,West,270,3.0,7.0,53,0.00,,,-99.99,,2013-03-16 02:52:00,
2013-03-15 23:02:00,51.0,35.0,-100.00,West,270,3.0,7.0,53,0.00,,,-99.99,,2013-03-16 03:02:00,
2013-03-15 23:12:00,50.0,35.0,-100.00,West,280,2.0,6.0,55,0.00,,,-99.99,,2013-03-16 03:12:00,
2013-03-15 23:22:00,49.0,35.0,-100.00,NE,50,1.0,4.0,57,0.00,,,-99.99,,2013-03-16 03:22:00,
2013-03-15 23:33:00,49.0,35.0,-100.00,NE,50,1.0,4.0,57,0.00,,,-99.99,,2013-03-16 03:33:00,
2013-03-15 23:43:00,49.0,35.0,-100.00,East,90,0.0,4.0,59,0.00,,,-99.99,,2013-03-16 03:43:00,
2013-03-15 23:52:00,49.0,35.0,-100.00,East,90,0.0,4.0,59,0.00,,,-99.99,,2013-03-16 03:52:00,